Regional Weather Roundup
Issued by NWS

Home | Current Version | Previous Version | Text Only | Print | Product List | Glossary On
Versions: 1 2 3 4 5 6 7 8 9 10 11 12 13 14 15 16 17 18 19 20 21 22 23 24 25 26 27 28 29 30 31 32 33 34 35 36 37 38 39 40 41 42 43 44 45 46 47 48 49 50
000
ASUS43 KOAX 271610
RWRNE

WEATHER ROUNDUP FOR NEBRASKA
NATIONAL WEATHER SERVICE OMAHA NE
1100 AM CDT WED AUG 27 2014

NOTES: SATELLITE DATA IS BEING USED TO AUGMENT CLOUD COVER ABOVE
       12000 FEET.
       "FAIR" INDICATES FEW OR NO CLOUDS BELOW 12,000 FEET WITH NO
       SIGNIFICANT WEATHER AND/OR OBSTRUCTIONS TO VISIBILITY.

  * THESE STATIONS DO NOT REPORT WEATHER SUCH AS RAIN...SNOW OR FOG.

NEZ001>004-019>022-054>056-271700-
NEBRASKA PANHANDLE

CITY           SKY/WX    TMP DP  RH WIND       PRES   REMARKS
SCOTTSBLUFF    PTSUNNY   68  62  81 SE12      30.11F
ALLIANCE       CLOUDY    69  62  78 SE12      30.13F
CHADRON        PTSUNNY   71  61  70 N7        30.11F
KIMBALL        CLOUDY    64  63  95 SE9       30.15F
SIDNEY         PTSUNNY   70  60  70 S14       30.16S
$$

NEZ057>060-069>072-079>082-271700-
SOUTHWEST NEBRASKA

CITY           SKY/WX    TMP DP  RH WIND       PRES   REMARKS
NORTH PLATTE   CLOUDY    69  65  86 SE5       30.14F
IMPERIAL       CLOUDY    71  64  78 S14       30.13S
LEXINGTON      DRIZZLE   71  68  89 CALM      30.14S
MCCOOK         PTSUNNY   74  68  81 SE10      30.13S
OGALLALA       PTSUNNY   71  63  76 S6        30.14S
$$

NEZ005>010-023>029-035>040-094-271700-
NORTH CENTRAL NEBRASKA

CITY           SKY/WX    TMP DP  RH WIND       PRES   REMARKS
VALENTINE      CLOUDY    72  66  81 SE7       30.14R
AINSWORTH      PTSUNNY   68  65  91 SE7       30.15R
BROKEN BOW     CLOUDY    70  67  90 E6        30.15R
O`NEILL        LGT RAIN  69  67  94 CALM      30.16R
ORD            CLOUDY    68  66  93 E7        30.14R
THEDFORD       CLOUDY    71  67  87 SE5       30.15S
$$

NEZ041-046>049-061>064-073>077-083>087-271700-
SOUTH CENTRAL NEBRASKA

CITY           SKY/WX    TMP DP  RH WIND       PRES   REMARKS
GRAND ISLAND   CLOUDY    70  67  90 E7        30.17R
AURORA         CLOUDY    70  69  98 E8        30.16R
HASTINGS       CLOUDY    72  66  81 E9        30.16R
HEBRON         CLOUDY    76  69  78 E5        30.12S
HOLDREGE       CLOUDY    71  67  89 CALM      30.14R
KEARNEY *      CLOUDY    70  66  88 NE8       30.16R
YORK           CLOUDY    72 N/A N/A E8        30.17R
$$

NEZ011>018-030>034-042>045-271700-
NORTHEAST NEBRASKA

CITY           SKY/WX    TMP DP  RH WIND       PRES   REMARKS
NORFOLK        LGT RAIN  68  66  93 E8        30.14R
ALBION         LGT RAIN  67  65  91 SE8       30.15R
BLAIR          CLOUDY    69  67  93 E7        30.18R
FREMONT        CLOUDY    69  67  94 NE8       30.17R
WAYNE          LGT RAIN  65  64  97 CALM      30.15F
$$

NEZ050>053-065>068-078-088>093-271700-
SOUTHEAST NEBRASKA

CITY           SKY/WX    TMP DP  RH WIND       PRES   REMARKS
LINCOLN        CLOUDY    71  68  90 E9        30.16R
OMAHA EPPLEY   TSTM      68  66  93 E6        30.17F VSB 1
BEATRICE       CLOUDY    76  72  87 S7        30.14R
FALLS CITY     RAIN      71  67  87 SE10G18   30.15S FOG
NEBRASKA CITY  RAIN      70  70 100 SE12      30.15S
PLATTSMOUTH    DRIZZLE   70  68  93 E7        30.17R
$$

NEZ044-045-051>053-067-271700-
OMAHA AREA

CITY           SKY/WX    TMP DP  RH WIND       PRES   REMARKS
OMAHA EPPLEY   TSTM      68  66  93 E6        30.17F VSB 1
BLAIR          CLOUDY    69  67  93 E7        30.18R
FREMONT        CLOUDY    69  67  94 NE8       30.17R
MILLARD        RAIN      70  68  93 CALM      30.17S
OFFUTT AFB     LGT RAIN  69  69  99 E3        30.17R
PLATTSMOUTH    DRIZZLE   70  68  93 E7        30.17R
WAHOO          CLOUDY    70  67  89 E10       30.15S FOG
$$


USA.gov is the U.S. government's official web portal to all federal, state and local government web resources and services.